| time (UTC) | temp F | wind direction | speed MPH | gust MPH | rain 1hr in | rain 24hr in | rain mn in | humidity % | barometer mb |
| 20260505124557 | 54 | 219 | 3.0 | 8.0 | 0.00 | 0.00 | 0.00 | 87 | 1014.1 |
| 20260505124049 | 54 | 251 | 4.0 | 10.0 | 0.00 | 0.00 | 0.00 | 87 | 1014.1 |
| 20260505123549 | 54 | 222 | 4.0 | 10.0 | 0.00 | 0.00 | 0.00 | 87 | 1014.1 |
| 20260505123058 | 54 | 233 | 4.0 | 10.0 | 0.00 | 0.00 | 0.00 | 87 | 1014.0 |
| 20260505122548 | 54 | 243 | 4.0 | 11.0 | 0.00 | 0.00 | 0.00 | 87 | 1014.0 |
| 20260505122050 | 54 | 192 | 6.0 | 12.0 | 0.00 | 0.00 | 0.00 | 87 | 1014.0 |
| 20260505121556 | 54 | 193 | 6.0 | 12.0 | 0.00 | 0.00 | 0.00 | 87 | 1013.9 |
| 20260505121050 | 54 | 218 | 5.0 | 10.0 | 0.00 | 0.00 | 0.00 | 87 | 1013.9 |
| 20260505120550 | 54 | 239 | 5.0 | 9.0 | 0.00 | 0.00 | 0.00 | 87 | 1013.9 |
| 20260505120119 | 54 | 216 | 5.0 | 9.0 | 0.00 | 0.00 | 0.00 | 87 | 1013.8 |
| 20260505115549 | 54 | 244 | 5.0 | 10.0 | 0.00 | 0.00 | 0.00 | 87 | 1013.9 |
| 20260505115049 | 54 | 220 | 4.0 | 11.0 | 0.00 | 0.00 | 0.00 | 87 | 1013.8 |
| 20260505114555 | 54 | 249 | 4.0 | 11.0 | 0.00 | 0.00 | 0.00 | 87 | 1013.7 |
| 20260505114049 | 54 | 185 | 5.0 | 11.0 | 0.00 | 0.00 | 0.00 | 87 | 1013.8 |
| 20260505113553 | 54 | 225 | 5.0 | 10.0 | 0.00 | 0.00 | 0.00 | 87 | 1013.8 |
| 20260505113053 | 54 | 235 | 3.0 | 11.0 | 0.00 | 0.00 | 0.00 | 87 | 1013.7 |
| 20260505112548 | 54 | 230 | 6.0 | 12.0 | 0.00 | 0.00 | 0.00 | 87 | 1013.7 |
| 20260505112046 | 54 | 214 | 7.0 | 12.0 | 0.00 | 0.00 | 0.00 | 87 | 1013.8 |
| 20260505111553 | 54 | 239 | 6.0 | 11.0 | 0.00 | 0.00 | 0.00 | 87 | 1013.7 |
| 20260505111048 | 54 | 227 | 6.0 | 11.0 | 0.00 | 0.00 | 0.00 | 88 | 1013.6 |
| 20260505110550 | 54 | 244 | 6.0 | 13.0 | 0.00 | 0.00 | 0.00 | 88 | 1013.6 |
| 20260505110113 | 54 | 237 | 7.0 | 13.0 | 0.00 | 0.00 | 0.00 | 88 | 1013.5 |
| 20260505102050 | 53 | 210 | 7.0 | 14.0 | 0.00 | 0.00 | 0.00 | 88 | 1013.3 |
| 20260505101551 | 53 | 206 | 8.0 | 14.0 | 0.00 | 0.00 | 0.00 | 88 | 1013.3 |
| 20260505101048 | 53 | 219 | 6.0 | 14.0 | 0.00 | 0.00 | 0.00 | 88 | 1013.2 |
| 20260505100548 | 53 | 229 | 7.0 | 14.0 | 0.00 | 0.00 | 0.00 | 88 | 1013.1 |
| 20260505100053 | 53 | 243 | 7.0 | 14.0 | 0.00 | 0.00 | 0.00 | 89 | 1013.1 |
| 20260505095548 | 53 | 238 | 9.0 | 14.0 | 0.00 | 0.00 | 0.00 | 89 | 1013.0 |
| 20260505095046 | 53 | 234 | 8.0 | 14.0 | 0.00 | 0.00 | 0.00 | 89 | 1013.0 |
| 20260505094550 | 53 | 212 | 10.0 | 14.0 | 0.00 | 0.00 | 0.00 | 88 | 1013.1 |
| 20260505094048 | 53 | 236 | 8.0 | 13.0 | 0.00 | 0.00 | 0.00 | 89 | 1013.0 |
| 20260505093549 | 53 | 224 | 8.0 | 13.0 | 0.00 | 0.00 | 0.00 | 89 | 1012.8 |
| 20260505093052 | 53 | 249 | 7.0 | 14.0 | 0.00 | 0.00 | 0.00 | 89 | 1012.8 |
| 20260505092548 | 53 | 226 | 8.0 | 17.0 | 0.00 | 0.00 | 0.00 | 89 | 1012.8 |
| 20260505092047 | 53 | 212 | 9.0 | 17.0 | 0.00 | 0.00 | 0.00 | 89 | 1012.8 |
| 20260505091556 | 53 | 215 | 11.0 | 16.0 | 0.00 | 0.00 | 0.00 | 89 | 1012.8 |
| 20260505091046 | 53 | 207 | 7.0 | 13.0 | 0.00 | 0.00 | 0.00 | 89 | 1012.7 |
| 20260505090548 | 53 | 222 | 7.0 | 14.0 | 0.00 | 0.00 | 0.00 | 89 | 1012.7 |
| 20260505090056 | 53 | 234 | 9.0 | 14.0 | 0.00 | 0.00 | 0.00 | 89 | 1012.7 |
| 20260505085549 | 53 | 236 | 7.0 | 14.0 | 0.00 | 0.00 | 0.00 | 89 | 1012.7 |
| 20260505085049 | 53 | 207 | 9.0 | 15.0 | 0.00 | 0.00 | 0.00 | 89 | 1012.6 |
| 20260505084600 | 53 | 255 | 8.0 | 15.0 | 0.00 | 0.00 | 0.00 | 89 | 1012.6 |
| 20260505084049 | 53 | 214 | 10.0 | 15.0 | 0.00 | 0.00 | 0.00 | 89 | 1012.6 |
| 20260505083548 | 53 | 247 | 6.0 | 13.0 | 0.00 | 0.00 | 0.00 | 89 | 1012.6 |
| 20260505083105 | 53 | 249 | 9.0 | 13.0 | 0.00 | 0.00 | 0.00 | 89 | 1012.7 |
| 20260505082552 | 53 | 221 | 7.0 | 13.0 | 0.00 | 0.00 | 0.00 | 89 | 1012.6 |
| 20260505082048 | 53 | 209 | 8.0 | 13.0 | 0.00 | 0.00 | 0.00 | 89 | 1012.7 |
| 20260505081556 | 53 | 180 | 5.0 | 11.0 | 0.00 | 0.00 | 0.00 | 89 | 1012.7 |
| 20260505081048 | 53 | 244 | 6.0 | 12.0 | 0.00 | 0.00 | 0.00 | 89 | 1012.6 |
| 20260505080548 | 53 | 206 | 7.0 | 12.0 | 0.00 | 0.00 | 0.00 | 89 | 1012.6 |
| 20260505080055 | 53 | 215 | 6.0 | 9.0 | 0.00 | 0.00 | 0.00 | 89 | 1012.7 |
| 20260505075551 | 53 | 199 | 4.0 | 11.0 | 0.00 | 0.00 | 0.00 | 89 | 1012.6 |
| 20260505075047 | 53 | 234 | 5.0 | 11.0 | 0.00 | 0.00 | 0.00 | 88 | 1012.5 |
| 20260505074556 | 53 | 220 | 7.0 | 11.0 | 0.00 | 0.00 | 0.00 | 88 | 1012.5 |
| 20260505074048 | 53 | 247 | 7.0 | 10.0 | 0.00 | 0.00 | 0.00 | 88 | 1012.5 |
| 20260505073548 | 53 | 212 | 5.0 | 9.0 | 0.00 | 0.00 | 0.00 | 88 | 1012.4 |
| 20260505073058 | 53 | 229 | 6.0 | 9.0 | 0.00 | 0.00 | 0.00 | 88 | 1012.4 |
| 20260505072551 | 53 | 216 | 5.0 | 11.0 | 0.00 | 0.00 | 0.00 | 88 | 1012.4 |
| 20260505072048 | 54 | 204 | 7.0 | 11.0 | 0.00 | 0.00 | 0.00 | 88 | 1012.3 |
| 20260505071548 | 54 | 190 | 6.0 | 11.0 | 0.00 | 0.00 | 0.00 | 88 | 1012.3 |
| 20260505071048 | 54 | 212 | 6.0 | 11.0 | 0.00 | 0.00 | 0.00 | 87 | 1012.1 |
| 20260505070548 | 54 | 231 | 5.0 | 12.0 | 0.00 | 0.00 | 0.00 | 87 | 1012.1 |
| 20260505070100 | 54 | 241 | 5.0 | 12.0 | 0.00 | 0.00 | 0.00 | 87 | 1012.0 |
| 20260505065548 | 54 | 220 | 6.0 | 13.0 | 0.00 | 0.00 | 0.00 | 87 | 1012.0 |
| 20260505065049 | 54 | 222 | 7.0 | 13.0 | 0.00 | 0.00 | 0.00 | 87 | 1011.9 |
| 20260505064631 | 54 | 212 | 8.0 | 12.0 | 0.00 | 0.00 | 0.00 | 87 | 1012.0 |
| 20260505064047 | 54 | 220 | 6.0 | 14.0 | 0.00 | 0.00 | 0.00 | 87 | 1011.9 |
| 20260505063548 | 54 | 237 | 8.0 | 14.0 | 0.00 | 0.00 | 0.00 | 87 | 1011.9 |
| 20260505063058 | 54 | 213 | 8.0 | 14.0 | 0.00 | 0.00 | 0.00 | 87 | 1011.8 |
| 20260505062549 | 54 | 206 | 9.0 | 12.0 | 0.00 | 0.00 | 0.00 | 86 | 1011.8 |
| 20260505062048 | 54 | 222 | 7.0 | 14.0 | 0.00 | 0.00 | 0.00 | 86 | 1011.7 |
| 20260505061555 | 54 | 207 | 7.0 | 14.0 | 0.00 | 0.00 | 0.00 | 86 | 1011.6 |
| 20260505061048 | 54 | 197 | 8.0 | 14.0 | 0.00 | 0.00 | 0.00 | 86 | 1011.5 |
| 20260505060549 | 55 | 201 | 7.0 | 14.0 | 0.00 | 0.00 | 0.00 | 86 | 1011.5 |
| 20260505060056 | 55 | 210 | 7.0 | 14.0 | 0.00 | 0.00 | 0.00 | 86 | 1011.4 |
| 20260505055549 | 55 | 220 | 7.0 | 12.0 | 0.00 | 0.00 | 0.00 | 86 | 1011.5 |
| 20260505055049 | 55 | 208 | 6.0 | 12.0 | 0.00 | 0.00 | 0.00 | 86 | 1011.4 |
| 20260505054554 | 55 | 230 | 7.0 | 12.0 | 0.00 | 0.00 | 0.00 | 85 | 1011.4 |
| 20260505054049 | 55 | 233 | 8.0 | 12.0 | 0.00 | 0.00 | 0.00 | 85 | 1011.4 |
| 20260505053547 | 55 | 191 | 7.0 | 12.0 | 0.00 | 0.00 | 0.00 | 85 | 1011.3 |
| 20260505053052 | 55 | 239 | 8.0 | 12.0 | 0.00 | 0.00 | 0.00 | 85 | 1011.3 |
| 20260505052547 | 55 | 231 | 8.0 | 12.0 | 0.00 | 0.00 | 0.00 | 84 | 1011.2 |
| 20260505052047 | 56 | 231 | 7.0 | 11.0 | 0.00 | 0.00 | 0.00 | 84 | 1011.2 |
| 20260505051554 | 56 | 195 | 6.0 | 12.0 | 0.00 | 0.00 | 0.00 | 83 | 1011.3 |
| 20260505051048 | 56 | 208 | 6.0 | 12.0 | 0.00 | 0.00 | 0.00 | 83 | 1011.2 |
| 20260505050548 | 56 | 212 | 6.0 | 13.0 | 0.00 | 0.00 | 0.00 | 82 | 1011.2 |
| 20260505050106 | 57 | 212 | 5.0 | 13.0 | 0.00 | 0.00 | 0.00 | 82 | 1011.1 |
| 20260505041604 | 60 | 235 | 6.0 | 11.0 | 0.00 | 0.00 | 0.00 | 77 | 1010.5 |
| 20260505041047 | 60 | 213 | 6.0 | 12.0 | 0.00 | 0.00 | 0.00 | 76 | 1010.4 |
| 20260505040549 | 61 | 225 | 7.0 | 12.0 | 0.00 | 0.00 | 0.00 | 75 | 1010.4 |
| 20260505040100 | 61 | 222 | 6.0 | 11.0 | 0.00 | 0.00 | 0.00 | 75 | 1010.2 |
| 20260505035546 | 61 | 255 | 6.0 | 12.0 | 0.00 | 0.00 | 0.00 | 75 | 1010.2 |
| 20260505035048 | 61 | 251 | 6.0 | 12.0 | 0.00 | 0.00 | 0.00 | 74 | 1010.1 |
| 20260505034608 | 62 | 235 | 7.0 | 13.0 | 0.00 | 0.00 | 0.00 | 73 | 1010.1 |
| 20260505034048 | 62 | 265 | 7.0 | 13.0 | 0.00 | 0.00 | 0.00 | 73 | 1010.0 |
| 20260505033548 | 63 | 246 | 8.0 | 15.0 | 0.00 | 0.00 | 0.00 | 72 | 1009.9 |
| 20260505033054 | 63 | 247 | 9.0 | 15.0 | 0.00 | 0.00 | 0.00 | 71 | 1009.9 |
| 20260505032546 | 64 | 240 | 9.0 | 14.0 | 0.00 | 0.00 | 0.00 | 71 | 1009.9 |
| 20260505032047 | 64 | 243 | 8.0 | 14.0 | 0.00 | 0.00 | 0.00 | 70 | 1009.8 |
| 20260505031554 | 64 | 251 | 8.0 | 12.0 | 0.00 | 0.00 | 0.00 | 69 | 1009.7 |
| 20260505031048 | 65 | 264 | 7.0 | 14.0 | 0.00 | 0.00 | 0.00 | 69 | 1009.8 |
| 20260505030552 | 66 | 254 | 8.0 | 14.0 | 0.00 | 0.00 | 0.00 | 68 | 1009.7 |
| 20260505030104 | 66 | 249 | 10.0 | 14.0 | 0.00 | 0.00 | 0.00 | 66 | 1009.6 |
| 20260505025546 | 67 | 256 | 7.0 | 14.0 | 0.00 | 0.00 | 0.00 | 66 | 1009.6 |
| 20260505025046 | 67 | 231 | 6.0 | 14.0 | 0.00 | 0.00 | 0.00 | 65 | 1009.5 |
| 20260505024606 | 68 | 250 | 9.0 | 14.0 | 0.00 | 0.00 | 0.00 | 64 | 1009.5 |
| 20260505024046 | 68 | 246 | 7.0 | 12.0 | 0.00 | 0.00 | 0.00 | 64 | 1009.4 |
| 20260505023545 | 68 | 223 | 7.0 | 12.0 | 0.00 | 0.00 | 0.00 | 63 | 1009.4 |
| 20260505023056 | 69 | 230 | 6.0 | 14.0 | 0.00 | 0.00 | 0.00 | 62 | 1009.4 |
| 20260505022548 | 70 | 261 | 9.0 | 14.0 | 0.00 | 0.00 | 0.00 | 61 | 1009.4 |
| 20260505022048 | 70 | 233 | 6.0 | 14.0 | 0.00 | 0.00 | 0.00 | 59 | 1009.3 |
| 20260505021555 | 71 | 232 | 6.0 | 14.0 | 0.00 | 0.00 | 0.00 | 59 | 1009.4 |
| 20260505021048 | 71 | 238 | 8.0 | 14.0 | 0.00 | 0.00 | 0.00 | 58 | 1009.4 |
| 20260505020548 | 71 | 244 | 7.0 | 13.0 | 0.00 | 0.00 | 0.00 | 58 | 1009.4 |
| 20260505020108 | 72 | 220 | 7.0 | 12.0 | 0.00 | 0.00 | 0.00 | 57 | 1009.3 |
| 20260505015548 | 72 | 262 | 6.0 | 12.0 | 0.00 | 0.00 | 0.00 | 56 | 1009.3 |
| 20260505015050 | 72 | 278 | 5.0 | 10.0 | 0.00 | 0.00 | 0.00 | 56 | 1009.3 |
| 20260505014553 | 73 | 266 | 6.0 | 11.0 | 0.00 | 0.00 | 0.00 | 57 | 1009.3 |
| 20260505014048 | 73 | 245 | 6.0 | 13.0 | 0.00 | 0.00 | 0.00 | 57 | 1009.3 |
| 20260505013548 | 73 | 214 | 8.0 | 13.0 | 0.00 | 0.00 | 0.00 | 56 | 1009.3 |
| 20260505013058 | 73 | 260 | 8.0 | 13.0 | 0.00 | 0.00 | 0.00 | 57 | 1009.2 |
| 20260505012550 | 74 | 267 | 6.0 | 11.0 | 0.00 | 0.00 | 0.00 | 56 | 1009.2 |
| 20260505012048 | 74 | 252 | 6.0 | 10.0 | 0.00 | 0.00 | 0.00 | 57 | 1009.1 |
| 20260505011557 | 74 | 241 | 7.0 | 10.0 | 0.00 | 0.00 | 0.00 | 56 | 1009.2 |
| 20260505011051 | 75 | 257 | 5.0 | 10.0 | 0.00 | 0.00 | 0.00 | 56 | 1009.1 |
| 20260505010548 | 75 | 231 | 7.0 | 10.0 | 0.00 | 0.00 | 0.00 | 55 | 1009.2 |
| 20260505010108 | 75 | 256 | 7.0 | 10.0 | 0.00 | 0.00 | 0.00 | 55 | 1009.3 |
| 20260505005548 | 76 | 245 | 5.0 | 9.0 | 0.00 | 0.00 | 0.00 | 55 | 1009.3 |
| 20260505005048 | 75 | 260 | 3.0 | 11.0 | 0.00 | 0.00 | 0.00 | 54 | 1009.3 |
| 20260505004602 | 75 | 289 | 3.0 | 11.0 | 0.00 | 0.00 | 0.00 | 55 | 1009.3 |
| 20260505004047 | 76 | 264 | 7.0 | 11.0 | 0.00 | 0.00 | 0.00 | 53 | 1009.3 |
| 20260505003547 | 76 | 311 | 4.0 | 11.0 | 0.00 | 0.00 | 0.00 | 53 | 1009.3 |
| 20260505003055 | 76 | 235 | 5.0 | 11.0 | 0.00 | 0.00 | 0.00 | 53 | 1009.3 |
| 20260505002550 | 77 | 241 | 5.0 | 9.0 | 0.00 | 0.00 | 0.00 | 53 | 1009.3 |
| 20260505002047 | 77 | 258 | 4.0 | 10.0 | 0.00 | 0.00 | 0.00 | 54 | 1009.3 |
| 20260505001558 | 76 | 258 | 5.0 | 10.0 | 0.00 | 0.00 | 0.00 | 54 | 1009.3 |
| 20260505001047 | 76 | 200 | 6.0 | 10.0 | 0.00 | 0.00 | 0.00 | 53 | 1009.4 |
| 20260505000548 | 76 | 239 | 4.0 | 10.0 | 0.00 | 0.00 | 0.00 | 52 | 1009.4 |
| 20260505000112 | 76 | 241 | 8.0 | 10.0 | 0.00 | 0.00 | 0.00 | 53 | 1009.3 |
| 20260504235548 | 77 | 249 | 5.0 | 11.0 | 0.00 | 0.00 | 0.00 | 53 | 1009.3 |
| 20260504235048 | 77 | 280 | 5.0 | 11.0 | 0.00 | 0.00 | 0.00 | 52 | 1009.2 |
| 20260504234550 | 77 | 252 | 4.0 | 9.0 | 0.00 | 0.00 | 0.00 | 53 | 1009.3 |
| 20260504234048 | 76 | 243 | 6.0 | 11.0 | 0.00 | 0.00 | 0.00 | 51 | 1009.3 |
| 20260504233548 | 76 | 239 | 6.0 | 11.0 | 0.00 | 0.00 | 0.00 | 53 | 1009.2 |
| 20260504233050 | 76 | 248 | 7.0 | 11.0 | 0.00 | 0.00 | 0.00 | 50 | 1009.3 |
| 20260504232548 | 78 | 235 | 6.0 | 10.0 | 0.00 | 0.00 | 0.00 | 53 | 1009.2 |
| 20260504232047 | 77 | 242 | 6.0 | 11.0 | 0.00 | 0.00 | 0.00 | 50 | 1009.2 |
| 20260504231620 | 77 | 220 | 5.0 | 11.0 | 0.00 | 0.00 | 0.00 | 51 | 1009.3 |
| 20260504231048 | 77 | 278 | 6.0 | 11.0 | 0.00 | 0.00 | 0.00 | 50 | 1009.3 |
| 20260504230547 | 77 | 240 | 4.0 | 10.0 | 0.00 | 0.00 | 0.00 | 49 | 1009.4 |
| 20260504230101 | 77 | 250 | 6.0 | 10.0 | 0.00 | 0.00 | 0.00 | 48 | 1009.5 |
| 20260504225549 | 76 | 244 | 7.0 | 10.0 | 0.00 | 0.00 | 0.00 | 48 | 1009.6 |
| 20260504225051 | 76 | 247 | 5.0 | 10.0 | 0.00 | 0.00 | 0.00 | 46 | 1009.7 |
| 20260504224549 | 76 | 245 | 7.0 | 9.0 | 0.00 | 0.00 | 0.00 | 47 | 1009.8 |
| 20260504224047 | 76 | 256 | 5.0 | 9.0 | 0.00 | 0.00 | 0.00 | 48 | 1009.9 |
| 20260504223548 | 77 | 266 | 3.0 | 9.0 | 0.00 | 0.00 | 0.00 | 45 | 1009.9 |
| 20260504223054 | 77 | 289 | 5.0 | 10.0 | 0.00 | 0.00 | 0.00 | 44 | 1009.9 |
| 20260504222549 | 78 | 308 | 4.0 | 10.0 | 0.00 | 0.00 | 0.00 | 45 | 1009.9 |
| 20260504222048 | 77 | 288 | 4.0 | 9.0 | 0.00 | 0.00 | 0.00 | 45 | 1010.0 |
| 20260504221631 | 77 | 266 | 4.0 | 8.0 | 0.00 | 0.00 | 0.00 | 43 | 1010.0 |
| 20260504221048 | 77 | 234 | 4.0 | 9.0 | 0.00 | 0.00 | 0.00 | 43 | 1010.0 |
| 20260504220548 | 77 | 197 | 3.0 | 11.0 | 0.00 | 0.00 | 0.00 | 45 | 1010.0 |
| 20260504220052 | 76 | 260 | 6.0 | 11.0 | 0.00 | 0.00 | 0.00 | 43 | 1010.0 |
| 20260504215550 | 76 | 252 | 6.0 | 10.0 | 0.00 | 0.00 | 0.00 | 44 | 1010.1 |
| 20260504215047 | 76 | 262 | 4.0 | 10.0 | 0.00 | 0.00 | 0.00 | 47 | 1010.2 |
| 20260504214550 | 75 | 275 | 4.0 | 10.0 | 0.00 | 0.00 | 0.00 | 50 | 1010.1 |
| 20260504214046 | 75 | 273 | 7.0 | 11.0 | 0.00 | 0.00 | 0.00 | 48 | 1010.1 |
| 20260504213548 | 75 | 276 | 5.0 | 11.0 | 0.00 | 0.00 | 0.00 | 48 | 1010.2 |
| 20260504213054 | 75 | 270 | 5.0 | 11.0 | 0.00 | 0.00 | 0.00 | 50 | 1010.2 |
| 20260504212548 | 75 | 281 | 6.0 | 11.0 | 0.00 | 0.00 | 0.00 | 52 | 1010.2 |
| 20260504212049 | 74 | 270 | 5.0 | 10.0 | 0.00 | 0.00 | 0.00 | 56 | 1010.2 |
| 20260504211549 | 74 | 213 | 5.0 | 12.0 | 0.00 | 0.00 | 0.00 | 55 | 1010.2 |
| 20260504211048 | 73 | 262 | 7.0 | 12.0 | 0.00 | 0.00 | 0.00 | 54 | 1010.3 |
| 20260504210548 | 74 | 270 | 5.0 | 9.0 | 0.00 | 0.00 | 0.00 | 55 | 1010.3 |
| 20260504210054 | 73 | 224 | 6.0 | 9.0 | 0.00 | 0.00 | 0.00 | 56 | 1010.3 |
| 20260504205549 | 73 | 240 | 6.0 | 9.0 | 0.00 | 0.00 | 0.00 | 58 | 1010.3 |
| 20260504205049 | 74 | 236 | 4.0 | 9.0 | 0.00 | 0.00 | 0.00 | 57 | 1010.3 |
| 20260504204549 | 74 | 153 | 4.0 | 9.0 | 0.00 | 0.00 | 0.00 | 58 | 1010.4 |
| 20260504204049 | 74 | 200 | 5.0 | 9.0 | 0.00 | 0.00 | 0.00 | 58 | 1010.5 |
| 20260504203550 | 74 | 189 | 4.0 | 9.0 | 0.00 | 0.00 | 0.00 | 62 | 1010.5 |
| 20260504203050 | 73 | 216 | 5.0 | 9.0 | 0.00 | 0.00 | 0.00 | 60 | 1010.4 |
| 20260504202546 | 73 | 189 | 5.0 | 9.0 | 0.00 | 0.00 | 0.00 | 59 | 1010.4 |
| 20260504202049 | 73 | 191 | 4.0 | 9.0 | 0.00 | 0.00 | 0.00 | 60 | 1010.3 |
| 20260504201550 | 73 | 185 | 5.0 | 9.0 | 0.00 | 0.00 | 0.00 | 57 | 1010.4 |
| 20260504201049 | 73 | 215 | 5.0 | 9.0 | 0.00 | 0.00 | 0.00 | 60 | 1010.4 |
| 20260504200548 | 73 | 162 | 4.0 | 9.0 | 0.00 | 0.00 | 0.00 | 62 | 1010.4 |
| 20260504200052 | 72 | 175 | 4.0 | 9.0 | 0.00 | 0.00 | 0.00 | 61 | 1010.6 |
| 20260504195548 | 72 | 199 | 4.0 | 9.0 | 0.00 | 0.00 | 0.00 | 62 | 1010.7 |
| 20260504195048 | 71 | 256 | 5.0 | 10.0 | 0.00 | 0.00 | 0.00 | 60 | 1010.7 |
| 20260504194602 | 71 | 218 | 5.0 | 10.0 | 0.00 | 0.00 | 0.00 | 60 | 1010.8 |
| 20260504194048 | 71 | 208 | 7.0 | 10.0 | 0.00 | 0.00 | 0.00 | 62 | 1010.7 |
| 20260504193548 | 71 | 215 | 6.0 | 12.0 | 0.00 | 0.00 | 0.00 | 61 | 1010.7 |
| 20260504193050 | 71 | 193 | 5.0 | 12.0 | 0.00 | 0.00 | 0.00 | 59 | 1010.7 |
| 20260504192547 | 70 | 206 | 7.0 | 13.0 | 0.00 | 0.00 | 0.00 | 60 | 1010.8 |
| 20260504192048 | 70 | 204 | 8.0 | 13.0 | 0.00 | 0.00 | 0.00 | 61 | 1010.8 |
| 20260504191610 | 70 | 206 | 9.0 | 13.0 | 0.00 | 0.00 | 0.00 | 62 | 1010.9 |
| 20260504191047 | 70 | 207 | 10.0 | 13.0 | 0.00 | 0.00 | 0.00 | 60 | 1010.8 |
| 20260504190547 | 69 | 203 | 8.0 | 13.0 | 0.00 | 0.00 | 0.00 | 61 | 1010.9 |
| 20260504190058 | 69 | 218 | 7.0 | 11.0 | 0.00 | 0.00 | 0.00 | 62 | 1010.8 |
| 20260504185549 | 69 | 242 | 7.0 | 11.0 | 0.00 | 0.00 | 0.00 | 60 | 1010.9 |
| 20260504185048 | 70 | 220 | 4.0 | 11.0 | 0.00 | 0.00 | 0.00 | 65 | 1010.9 |
| 20260504184601 | 69 | 164 | 7.0 | 11.0 | 0.00 | 0.00 | 0.00 | 64 | 1011.0 |
| 20260504184048 | 69 | 209 | 7.0 | 11.0 | 0.00 | 0.00 | 0.00 | 64 | 1011.1 |
| 20260504183548 | 70 | 189 | 8.0 | 11.0 | 0.00 | 0.00 | 0.00 | 60 | 1011.0 |
| 20260504183056 | 70 | 162 | 6.0 | 12.0 | 0.00 | 0.00 | 0.00 | 63 | 1011.0 |
| 20260504182553 | 69 | 208 | 7.0 | 12.0 | 0.00 | 0.00 | 0.00 | 64 | 1011.0 |
| 20260504182048 | 69 | 206 | 7.0 | 12.0 | 0.00 | 0.00 | 0.00 | 64 | 1011.0 |
| 20260504181551 | 68 | 156 | 6.0 | 11.0 | 0.00 | 0.00 | 0.00 | 65 | 1011.2 |
| 20260504181048 | 68 | 166 | 5.0 | 9.0 | 0.00 | 0.00 | 0.00 | 63 | 1011.2 |
| 20260504180547 | 68 | 192 | 5.0 | 10.0 | 0.00 | 0.00 | 0.00 | 67 | 1011.3 |
| 20260504180054 | 67 | 199 | 6.0 | 10.0 | 0.00 | 0.00 | 0.00 | 67 | 1011.2 |
| 20260504175547 | 67 | 189 | 4.0 | 9.0 | 0.00 | 0.00 | 0.00 | 66 | 1011.3 |
| 20260504175045 | 67 | 239 | 4.0 | 10.0 | 0.00 | 0.00 | 0.00 | 67 | 1011.2 |
| 20260504174553 | 67 | 175 | 5.0 | 11.0 | 0.00 | 0.00 | 0.00 | 69 | 1011.1 |
| 20260504174048 | 66 | 216 | 6.0 | 12.0 | 0.00 | 0.00 | 0.00 | 69 | 1011.1 |
| 20260504173551 | 65 | 202 | 8.0 | 12.0 | 0.00 | 0.00 | 0.00 | 68 | 1011.2 |
| 20260504173055 | 66 | 175 | 7.0 | 10.0 | 0.00 | 0.00 | 0.00 | 67 | 1011.0 |
| 20260504172548 | 66 | 208 | 5.0 | 9.0 | 0.00 | 0.00 | 0.00 | 68 | 1011.0 |
| 20260504172052 | 66 | 185 | 5.0 | 9.0 | 0.00 | 0.00 | 0.00 | 65 | 1011.0 |
| 20260504171556 | 66 | 226 | 4.0 | 9.0 | 0.00 | 0.00 | 0.00 | 66 | 1010.9 |
| 20260504171048 | 65 | 190 | 5.0 | 9.0 | 0.00 | 0.00 | 0.00 | 67 | 1011.0 |
| 20260504170548 | 66 | 196 | 6.0 | 9.0 | 0.00 | 0.00 | 0.00 | 65 | 1011.0 |
| 20260504151048 | 59 | 194 | 3.0 | 8.0 | 0.00 | 0.00 | 0.00 | 75 | 1010.2 |
| 20260504150548 | 59 | 171 | 4.0 | 8.0 | 0.00 | 0.00 | 0.00 | 76 | 1010.2 |
| 20260504141051 | 55 | 226 | 1.0 | 3.0 | 0.00 | 0.00 | 0.00 | 80 | 1009.7 |
| 20260504140548 | 54 | 226 | 1.0 | 3.0 | 0.00 | 0.00 | 0.00 | 80 | 1009.8 |